www.pogodaiklimat.ru

Погода и климат >> Архив погоды >> Россия >> Дагестан >> Терекли-Мектеб


ПОГОДА в Терекли-Мектебе

  • Прогноз погоды в Терекли-Мектебе
  • Монитор погоды в Терекли-Мектебе

АРХИВ ПОГОДЫ в Терекли-Мектебе

Время (UTC), дата Ветер
(напр.,м/с)
 
Видим.   Явления Облачность Т
(С)
Тd
(С)
f
(%)
Тe
(С)
Тes
(С)
Комфортность P
(гПа)
Po
(гПа)
Тmin
(С)
Tmax
(С)
R
(мм)
R24
(мм)
S
(см)
18 13.09 В 2 10 км ясно +15.3 +10.2 72 +15 +15 1023.4 1021.2
21 13.09 С 1 10 км ясно +13.6 +10.9 84 +14 +14 1022.4 1020.1
00 14.09 С 1 10 км ясно +11.7 +10.5 92 +11 +11 1021.9 1019.7
03 14.09 СВ 1 4000 м дымка ясно +11.3 +10.8 97 +11 +11 1022.1 1019.9 +10.7
06 14.09 В 5 10 км ясно +22.1 +13.1 57 +25 +28 комфорт 1022.1 1019.9
09 14.09 В 6
{11}
10 км 3/3 600 м
[Cu med, cong]
+25.5 +6.5 30 +25 +29 комфорт 1020.5 1018.3
12 14.09 В 6
{11}
10 км 4/4 600 м
[Cu med, cong]
+26.0 +7.8 31 +26 +27 жарко 1018.9 1016.8
15 14.09 В 5
{10}
10 км ясно +22.5 +8.1 40 +24 +24 комфорт 1018.6 1016.4 +26.5
18 14.09 СВ 2 10 км ясно +16.2 +9.6 65 +16 +16 1019.3 1017.0
21 14.09 С 1 10 км ясно +14.4 +11.3 82 +15 +15 1018.6 1016.4
00 15.09 СВ 1 10 км ясно +12.9 +11.5 91 +13 +13 1017.5 1015.3
03 15.09 штиль 0 10 км ясно +11.6 +11.0 96 +11 +11 1017.8 1015.6 +11.5
06 15.09 З 2 10 км ясно +19.8 +13.7 68 +22 +28 комфорт 1018.3 1016.1
09 15.09 З 3 10 км 1/0
[Ac trans]
+26.7 +8.4 31 +27 +36 жарко 1017.3 1015.1
12 15.09 СЗ 3 10 км 3/0
[Ac trans]
+28.5 +7.3 26 +28 +32 жарко 1016.0 1013.9
15 15.09 Ю 2 10 км ясно +25.6 +7.6 32 +26 +26 жарко 1016.3 1014.1 +28.8
18 15.09 З 2 10 км 6/0
[Ac trans]
+21.7 +7.9 41 +23 +23 комфорт 1017.7 1015.6
21 15.09 З 3 10 км 3/0
[Ac trans]
+17.7 +5.6 45 +18 +18 1018.1 1015.9
00 16.09 СЗ 3 10 км 5/0
[Ac trans]
+14.4 +7.3 62 +14 +14 1018.8 1016.6
03 16.09 СЗ 3 10 км 3/0
[Ac trans]
+12.8 +7.2 69 +12 +12 1018.9 1016.7 +12.8
06 16.09 С 1 10 км ясно +19.6 +9.0 50 +22 +29 комфорт 1018.6 1016.4
09 16.09 СВ 4 10 км ясно +27.0 +8.2 30 +27 +35 жарко 1015.6 1013.5
12 16.09 В 4 10 км ясно +28.3 +9.7 31 +28 +32 жарко 1013.3 1011.1
15 16.09 В 5 10 км 4/0
[Ac As]
+24.0 +13.1 51 +26 +26 жарко 1012.3 1010.2 +28.6
18 16.09 СВ 2 10 км 4/0
[Ac As]
+18.5 +15.5 83 +20 +20 1012.7 1010.5
21 16.09 В 2 10 км 8/0
[Ac As]
+18.6 +17.1 91 +20 +20 1012.1 1009.9
00 17.09 штиль 0 500 м туман ?/? +18.0 +17.4 96 +18 +18 1011.8 1009.6
03 17.09 ЮЗ 1 500 м туман ?/? +18.0 +17.5 97 +19 +19 1011.9 1009.7 +17.2
06 17.09 СЗ 1 500 м туман ясно +19.1 +18.7 98 +22 +29 комфорт 1012.0 1009.8
09 17.09 З 1 10 км 6/6 600 м
[Sc]
+26.5 +13.1 44 +28 +34 жарко 1010.2 1008.1
12 17.09 СЗ 2 10 км 10/10 600 м
[Sc]
+27.8 +9.6 32 +28 +28 жарко 1009.3 1007.2
15 17.09 СЗ 4
{13}
10 км 10/10 600 м
[Sc]
+20.4 +11.4 56 +22 +22 комфорт 1010.7 1008.5 +28.7
18 17.09 З 1 10 км 6/6 600 м
[Sc]
+17.7 +11.9 69 +19 +19 1011.4 1009.2
21 17.09 ЮЗ 2 10 км 4/0
[Ac trans]
+16.4 +12.4 77 +17 +17 1011.6 1009.4
00 18.09 ЮЗ 4 10 км ясно +16.2 +13.0 81 +15 +15 1011.9 1009.7
03 18.09 З 3 4000 м дымка ясно +15.1 +11.5 79 +14 +14 1013.4 1011.2 +15.0
06 18.09 СЗ 5 10 км ясно +22.4 +10.3 46 +24 +27 комфорт 1014.7 1012.5
09 18.09 СЗ 2 10 км ясно +26.4 +8.8 33 +27 +38 жарко 1014.0 1011.8
12 18.09 ЮВ 2 10 км ясно +29.0 +7.9 27 +28 +34 жарко 1012.5 1010.4
15 18.09 ЮВ 3 10 км ясно +26.3 +7.1 29 +26 +26 жарко 1011.8 1009.7 +29.3
18 18.09 ЮВ 4 10 км ясно +21.1 +11.4 54 +23 +23 комфорт 1011.9 1009.8
21 18.09 Ю 3 10 км ясно +17.3 +12.3 72 +17 +17 1011.9 1009.7
00 19.09 З 5 10 км ясно +16.0 +11.8 76 +15 +15 1014.0 1011.8
03 19.09 СЗ 3 10 км ясно +15.4 +9.8 69 +15 +15 1016.9 1014.7 +14.0
06 19.09 З 3 10 км ясно +20.1 +8.9 48 +22 +26 комфорт 1019.9 1017.7
09 19.09 З 3
{10}
10 км ясно +22.5 +5.6 33 +23 +32 комфорт 1019.4 1017.2
12 19.09 СЗ 4 10 км 3/0
[Ac trans]
+24.3 +5.6 30 +24 +27 комфорт 1019.0 1016.8
15 19.09 С 2 10 км 8/6 600 м
[Sc Ac trans]
+21.6 +2.7 29 +22 +22 комфорт 1019.7 1017.5 +24.4
18 19.09 СВ 1 10 км ясно +14.7 +1.0 39 +15 +15 1020.4 1018.1
21 19.09 СВ 1 10 км ясно +13.6 -0.5 38 +14 +14 1019.2 1017.0
00 20.09 СВ 1 10 км ясно +11.2 +2.8 56 +11 +11 1018.5 1016.2
03 20.09 С 1 н/о н/о +10.0 +3.9 66 +10 +10 1018.5 1016.2
06 20.09 СВ 6 10 км 4/0
[Ac trans]
+21.2 +7.9 42 +22 +24 комфорт 1017.1 1015.0
09 20.09 СВ 6-10
{12}
10 км 4/0
[Ac As]
+23.9 +7.4 35 +24 +27 комфорт 1014.4 1012.2
12 20.09 В 7-12
{12}
10 км 6/6 600 м
[Sc diur, vesp]
+23.7 +10.2 42 +25 +25 комфорт 1011.7 1009.6
15 20.09 СВ 7-10
{13}
10 км 8/4 600 м
[Cb cap Ac trans]
+20.0 +9.0 49 +21 +21 комфорт 1010.9 1008.7 +24.7

 

Местоположение метеостанции Терекли-Мектеб (Дагестан, Россия): широта 44.13 долгота 45.88 высота над уровнем моря 18 м.

В архиве по умолчанию представлена погода в Терекли-Мектебе за последнюю неделю. Архивные данные за месяц целиком и за предыдущие месяцы, начиная с января 2011 года, Вы можете получить, выбрав интересующий диапазон дат из раскрывающегося списка и нажав кнопку "Ввод!".


*Определитесь, кто Вы:
робот инопланетянин человек

Внимание! Время в таблицах - всемирное. Для получения местного времени необходимо прибавить поправку, которая равна 3 ч.

Смотрите также архив погоды в соседних городах и на ближайших метеорологических станциях:

Погода в Рощино (Ставропольский край, Россия) (54 км)
Погода в Южно-Сухокумске (Дагестан, Россия) (61 км)
Погода в Кочубее (Дагестан, Россия) (61 км)
Погода в Наурской (Чечня, Россия) (70 км)
Погода в Кизляре (Дагестан, Россия) (75 км)
Погода в Шелковской (Чечня, Россия) (77 км)
Погода в Гудермесе (Чечня, Россия) (89 км)
Погода в Бабаюрте (Дагестан, Россия) (93 км)
Погода в Грозном (Чечня, Россия) (99 км)
Погода в Моздоке (Северная Осетия, Россия) (107 км)

Пояснения к столбцам:

Ветер - указаны скорость ветра в м/с - средняя за 10 мин, порывы в срок и между сроками (в фигурных скобках) и направление, откуда дует ветер: С - северный, СВ - северо-восточный, В - восточный, ЮВ - юго-восточный, Ю - южный, ЮЗ - юго-западный, З - западный, СЗ - северо-западный.
Видимость - горизонтальная дальность видимости в метрах или километрах. При видимости от 1 до 10 км при отсутствии осадков обычно наблюдается дымка, при ухудшении видимости до 1 км и менее - туман. В сухую погоду видимость может ухудшаться дымом, пылью или мглою.
Явления - указаны атмосферные явления, наблюдавшиеся в срок или в последний час перед сроком; фигурными скобками обозначены явления, наблюдавшиеся между сроками (за 1-3 часа до срока); квадратными скобками обозначены град или гололедные отложения с указанием их диаметра в мм.
Облачность - указаны через наклонную черту общая и нижняя облачность в баллах и высота нижней границы облаков в метрах; квадратными скобками обозначены формы облаков: Ci - перистые, Cs - перисто-слоистые, Cc - перисто-кучевые, Ac - высококучевые, As - высокослоистые, Sc - слоисто-кучевые, Ns - слоисто-дождевые, Cu - кучевые, Cb - кучево-дождевые. Подробнее классификацию облаков см. в Атласе облаков (PDF).
T - Температура воздуха - температура, измеренная на высоте 2 м над землей.
Td - Температура точки росы - температура, при понижении до которой содержащийся в воздухе водяной пар достигнет насыщения.
f - Относительная влажность воздуха - влажноcть воздуха, измеренная на высоте 2 м над землей.
Te - Эффективная температура - температура, которую ощущает одетый по сезону человек в тени. Характеристика душности погоды. При расчете учитывается влияние влажности воздуха и скорости ветра на теплоощущения человека.
Tes - Эффективная температура на солнце - температура, которую ощущает человек, с поправкой на солнечный нагрев. Характеристика знойности погоды. Зависит от высоты солнца над горизонтом, облачности и скорости ветра. Ночью, в пасмурную погоду, а также при ветре 12 м/с и более поправка равна нулю.
P - Атмосферное давление - приведенное к уровню моря атмосферное давление.
Po - Атмосферное давление - измеренное на уровне метеостанции атмосферное давление.
Tmin - Минимальная температура - минимум температуры воздуха на высоте 2 м над землей.
Tmax - Максимальная температура - максимум температуры воздуха на высоте 2 м над землей.
R - Количество осадков - Количество выпавших осадков за период времени, мм. При наведении курсора мыши на число - период времени, за который выпало указанное количество осадков.
R24 - Количество осадков - Количество выпавших осадков за 24 часа, мм.
S - Снежный покров - Высота снежного покрова, см. При наведении курсора мыши на число - состояние снежного покрова и степень покрытия местности в баллах.